Location: Aciu?a
(46.2833°N, 22.4500°E)
Time: 05:40:03
(UTC+00:00)

Meteor 1-16 Rocket - Pass Details

Date: 25 October 2021
Orbit: 789 x 908 km, 81.2° (Epoch: 04 December)

Event Time Altitude Azimuth Distance (km) Brightness Sun altitude
Rises 16:03:51 0° 191° (S) 3,509 7.7 -7.1°
Reaches altitude 10° 16:06:19 10° 192° (SSW) 2,564 7.0 -7.5°
Maximum altitude 16:12:11 83° 281° (W) 896 4.4 -8.5°
Drops below altitude 10° 16:17:57 10° 10° (N) 2,515 6.5 -9.5°
Sets 16:20:21 0° 11° (N) 3,438 7.2 -9.9°
